Miscellaneous Local Product
Issued by NWS North Platte, NE

Home | Current Version | Previous Version | Text Only | Print | Product List | Glossary On
Versions: 1 2 3 4 5 6 7 8 9 10 11 12 13 14 15 16 17 18 19 20 21 22 23 24 25 26 27 28 29 30 31 32 33 34 35 36 37 38 39 40 41 42 43 44 45 46 47 48 49 50
000
AXUS43 KLBF 240810
MISLBF


WESTERN AND NORTH CENTRAL NEBRASKA HOURLY WEATHER ROUNDUP
NATIONAL WEATHER SERVICE NORTH PLATTE NE
200 AM CST FRI NOV 24 2017

NOTE: "FAIR" INDICATES FEW OR NO CLOUDS BELOW 12,000 FEET WITH NO
SIGNIFICANT WEATHER AND/OR OBSTRUCTIONS TO VISIBILITY.

NOTE: STATIONS NOT REPORTING VARIABLES SUCH AS SKY/WEATHER OR
PRESSURE ARE PROVIDED BY RAWS AND APRS NETWORKS AND ARE NOT UNDER
NATIONAL WEATHER SERVICE QUALITY CONTROL.

...OBSERVATIONS IN AND NEAR THE EASTERN PANHANDLE OF NEBRASKA...

CITY           SKY/WX    TMP DP  RH WIND       PRES   REMARKS
PINE RIDGE     CLEAR     46  36  68 SW6       29.64F
GORDON         FAIR      42  35  74 SW7       29.67S
CHADRON        CLEAR     54  38  54 SW12G21   29.65F
ALLIANCE       CLOUDY    50  37  61 W13       29.72F
SIDNEY         CLOUDY    44  30  57 SW8       29.79F
CRESCENT LAKE    N/A     48  34  59 W6          N/A
$$

...OBSERVATIONS IN NORTHERN NEBRASKA AND FAR SOUTHERN SOUTH DAKOTA...

CITY           SKY/WX    TMP DP  RH WIND       PRES   REMARKS
WINNER         FAIR      51  37  58 SW10      29.54F
VALENTINE      CLEAR     52  37  56 W15       29.60F
THEDFORD       CLEAR     54  39  56 W14       29.66F
AINSWORTH      CLEAR     49  39  67 W14       29.59F
O`NEILL        CLEAR     49  41  74 SW7       29.57F
ORD            CLOUDY    51  39  63 CALM      29.61F
BROKEN BOW     PTCLDY    46  37  71 W10       29.65F
VALENTINE NWR    N/A     54  37  53 W10         N/A
HALSEY           N/A     56  38  50 W9G18       N/A
BUTTE            N/A     49  39  69 SW5         N/A
CHAMBERS         N/A     51  40  65 W7          N/A
EWING            N/A     48  40  75 SW3         N/A
$$

...OBSERVATIONS IN SOUTHWEST NEBRASKA AND FAR NORTHEAST COLORADO...

CITY           SKY/WX    TMP DP  RH WIND       PRES   REMARKS
HOLYOKE        FAIR      43  30  61 W10       29.79F
IMPERIAL       CLEAR     46  31  55 W12       29.76F
OGALLALA       PTCLDY    41  32  70 W5        29.75S
NORTH PLATTE   PTCLDY    39  34  82 NW5       29.71F
MCCOOK         CLEAR     47  37  68 W9        29.75F
LEXINGTON      PTCLDY    45  36  70 CALM      29.69F
STAPLETON        N/A     48  37  66 CALM        N/A
GOTHENBURG       N/A     49  34  56 W3          N/A
CALLAWAY         N/A     51  37  59 W10         N/A
$$

...OBSERVATIONS IN CENTRAL LINCOLN COUNTY AREA...

CITY           SKY/WX    TMP DP  RH WIND       PRES   REMARKS
N.P. AIRPORT   PTCLDY    39  34  82 NW5       29.71F
N.P. DOWNTOWN    N/A     44  35  72 CALM        N/A
N.P. SOUTHEAST   N/A     47  35  63 CALM        N/A
N.P. HILLCREST   N/A     46  36  68 W6          N/A
$$

...SOME OBSERVATIONS FROM AROUND THE REGION...

CITY           SKY/WX    TMP DP  RH WIND       PRES   REMARKS
DENVER         CLOUDY    55  20  25 SW9       29.89F
GRAND JUNCTION CLOUDY    43  33  68 E3        30.14S
LARAMIE        CLOUDY    50  31  48 CALM      30.01F
CHEYENNE       CLOUDY    56  31  38 SE9       29.90S
CASPER         CLEAR     52  34  50 SW30G38   29.82S
BISMARCK       CLEAR     55  37  50 W8        29.38S
RAPID CITY     CLEAR     58  33  39 W13       29.57F
PIERRE         CLEAR     48  37  65 W12       29.48F
SIOUX FALLS    CLEAR     46  39  76 S3        29.51F
OMAHA          CLOUDY    45  37  73 SE12      29.67F
GRAND ISLAND   PTCLDY    53  41  63 SW16      29.65F
SCOTTSBLUFF    CLOUDY    64  34  32 W20G25    29.74F
KANSAS CITY    MOCLDY    53  34  48 S13       29.81F
HILL CITY      CLEAR     49  39  68 W7        29.76F
WICHITA        CLOUDY    45  36  70 S9        29.84F
DODGE CITY     CLEAR     53  37  54 SW14      29.82F
OKLAHOMA CITY  MOCLDY    45  33  63 S8        29.92F
DALLAS         PTCLDY    49  32  52 S7        29.98F
AMARILLO       CLOUDY    52  31  44 SW10      29.95F
$$




USA.gov is the U.S. government's official web portal to all federal, state and local government web resources and services.